Regional Weather Roundup
Issued by NWS Cleveland, OH

Home | Current Version | Previous Version | Graphics & Text | Print | Product List | Glossary On
Versions: 1 2 3 4 5 6 7 8 9 10 11 12 13 14 15 16 17 18 19 20 21 22 23 24 25 26 27 28 29 30 31 32 33 34 35 36 37 38 39 40 41 42 43 44 45 46 47 48 49 50
000
ASUS41 KCLE 251410
RWRCLE
OHIO REGIONAL WEATHER ROUNDUP
NATIONAL WEATHER SERVICE CLEVELAND, OH
1000 AM EDT SAT APR 25 2015

NOTE: "FAIR" INDICATES FEW OR NO CLOUDS BELOW 12,000 FEET WITH NO
SIGNIFICANT WEATHER AND/OR OBSTRUCTIONS TO VISIBILITY.

OHZ001>008-015>018-024>027-034-035-043-044-251500-
   NORTHWEST OHIO

CITY           SKY/WX    TMP DP  RH WIND       PRES   REMARKS
DEFIANCE       CLOUDY    43  38  82 E12       29.88F
FINDLAY        CLOUDY    44  36  73 E13       29.87F
TOLEDO EXPRESS CLOUDY    43  39  86 E8        29.91R
TOLEDO EXEC    CLOUDY    45  38  76 E9        29.92S
LIMA           LGT RAIN  42  33  70 E18G25    29.85F
$$

OHZ009>014-019>023-028>033-038-089-251500-
   NORTHEAST OHIO

CITY           SKY/WX    TMP DP  RH WIND       PRES   REMARKS
CLE-HOPKINS    CLOUDY    44  37  76 E8        29.95S
CLE-LAKEFRONT  CLOUDY    45  30  55 E5        29.93S
CUY CO. ARPT   CLOUDY    45  30  57 E7        29.93S
LORAIN-ELYRIA  PTSUNNY   43  38  82 SE10      29.92S
ASHTABULA      CLOUDY    41  23  48 NE3       29.95S
AKRON-CANTON   CLOUDY    41  35  79 SE6       29.90F
WOOSTER        CLOUDY    40  35  83 E10       29.91F
MANSFIELD      CLOUDY    41  36  82 SE14      29.88F
YOUNGSTOWN     CLOUDY    40  28  62 CALM      29.92F
$$

OHZ042-051>053-060>062-070>072-077>081-251500-
  SOUTHWEST OHIO

CITY           SKY/WX    TMP DP  RH WIND       PRES   REMARKS
CINC-COVINGTON CLOUDY    50  41  71 E9        29.76S
CINC-LUNKEN    CLOUDY    50  42  74 CALM      29.78F
HAMILTON       CLOUDY    51  38  60 E7        29.78F
DAYTON         CLOUDY    49  35  58 E15       29.80F
WRIGHT-PAT AFB CLOUDY    49  32  53 NE14      29.80F
DAYTON GENERAL CLOUDY    50  33  52 E10       29.77F
WILMINGTON     CLOUDY    50  29  44 E10       29.78F
$$

OHZ036-037-039>041-045>050-054>059-063>069-073>076-082>088-251500-
  CENTRAL AND SOUTHEAST OHIO

CITY           SKY/WX    TMP DP  RH WIND       PRES   REMARKS
COLUMBUS       CLOUDY    46  25  43 E14       29.86F
OSU AIRPORT    CLOUDY    46  22  38 E14       29.85F
BOLTON FIELD   CLOUDY    46  27  46 MISG      29.85S
RICKENBACK AFB CLOUDY    45  26  47 E17       29.84F
NEWARK         CLOUDY    47  26  44 NE13      29.87S
MARION         CLOUDY    43  34  70 E13       29.88F
LANCASTER      CLOUDY    45  25  45 E12       29.86S
ZANESVILLE     CLOUDY    45  25  45 NE10      29.90R
NEW PHILLY     CLOUDY    44  33  65 E7        29.92F
$$



USA.gov is the U.S. government's official web portal to all federal, state and local government web resources and services.